EWG4AM EGCC-EDDH

Flight info

Callsign EWG4AM
Flight time N/A
Altitude 37000
Route DESIG L603 LAMSO DCT PETIK P154 SPY N873 ANDIK M105 RIBSO RIBSO7A
Aircraft A320/M-SDE3FGHIRWY/LB1

Departure

Time N/A
Airport Manchester Airport (EGCC)

Arrival

Time 2026-05-06 09:09
Airport Hamburg Helmut Schmidt Airport (EDDH)
Time Latitude Longitude Altitude Speed Heading
2026-05-06 08:43 53.37076 9.46828 4998 ft 223 kts 51°
2026-05-06 08:43 53.38080 9.48821 4860 ft 224 kts 51°
2026-05-06 08:43 53.39083 9.50805 4712 ft 223 kts 52°
2026-05-06 08:44 53.40084 9.52786 4564 ft 223 kts 52°
2026-05-06 08:44 53.41140 9.54845 4295 ft 240 kts 50°
2026-05-06 08:44 53.42237 9.56927 4026 ft 233 kts 50°
2026-05-06 08:44 53.43288 9.58897 3897 ft 220 kts 50°
2026-05-06 08:45 53.44300 9.60739 3775 ft 209 kts 50°
2026-05-06 08:45 53.45192 9.62582 3641 ft 198 kts 56°
2026-05-06 08:45 53.45974 9.64411 3508 ft 188 kts 55°
2026-05-06 08:45 53.46768 9.66097 3375 ft 180 kts 53°
2026-05-06 08:46 53.47285 9.67150 3295 ft 174 kts 52°
2026-05-06 08:46 53.48281 9.69153 3173 ft 159 kts 52°
2026-05-06 08:46 53.48983 9.70560 3105 ft 155 kts 52°
2026-05-06 08:46 53.49672 9.71941 3033 ft 154 kts 52°
2026-05-06 08:47 53.50353 9.73304 3009 ft 151 kts 52°
2026-05-06 08:47 53.51029 9.74657 3006 ft 151 kts 52°
2026-05-06 08:47 53.51703 9.76008 3006 ft 151 kts 52°
2026-05-06 08:47 53.52381 9.77367 2959 ft 153 kts 52°
2026-05-06 08:48 53.52834 9.78274 2874 ft 153 kts 52°
2026-05-06 08:48 53.53510 9.79631 2696 ft 150 kts 52°
2026-05-06 08:48 53.54172 9.80958 2502 ft 145 kts 53°
2026-05-06 08:48 53.54800 9.82218 2306 ft 136 kts 53°
2026-05-06 08:49 53.55400 9.83423 2126 ft 133 kts 53°
2026-05-06 08:49 53.55986 9.84602 1947 ft 131 kts 52°
2026-05-06 08:49 53.56566 9.85769 1775 ft 129 kts 52°
2026-05-06 08:49 53.57139 9.86923 1614 ft 129 kts 52°
2026-05-06 08:50 53.57716 9.88085 1428 ft 130 kts 51°
2026-05-06 08:50 53.58294 9.89247 1235 ft 129 kts 51°
2026-05-06 08:50 53.58871 9.90409 1040 ft 128 kts 50°
2026-05-06 08:50 53.59442 9.91568 843 ft 129 kts 50°
2026-05-06 08:51 53.60008 9.92735 689 ft 129 kts 50°
2026-05-06 08:51 53.60585 9.93893 537 ft 128 kts 50°
2026-05-06 08:51 53.61169 9.95046 372 ft 134 kts 50°
2026-05-06 08:51 53.61759 9.96241 165 ft 129 kts 50°
2026-05-06 08:52 53.62322 9.97371 73 ft 116 kts 49°
2026-05-06 08:52 53.62862 9.98451 405 ft 133 kts 51°
2026-05-06 08:52 53.63450 9.99690 1222 ft 137 kts 52°
2026-05-06 08:52 53.64069 10.00977 1654 ft 148 kts 52°
2026-05-06 08:53 53.64778 10.02395 1943 ft 170 kts 52°
2026-05-06 08:53 53.65590 10.03998 2414 ft 185 kts 52°
2026-05-06 08:53 53.66442 10.05665 3135 ft 190 kts 51°
2026-05-06 08:53 53.67317 10.07369 3803 ft 196 kts 51°
2026-05-06 08:54 53.68222 10.09135 3981 ft 199 kts 51°
2026-05-06 08:54 53.69254 10.10683 3998 ft 203 kts 29°
2026-05-06 08:54 53.70629 10.11342 4003 ft 206 kts 21°
2026-05-06 08:54 53.71782 10.12613 4002 ft 198 kts 56°
2026-05-06 08:55 53.72209 10.14766 4003 ft 198 kts 90°
2026-05-06 08:55 53.71743 10.16944 4005 ft 205 kts 125°
2026-05-06 08:55 53.70536 10.18280 4006 ft 217 kts 160°
2026-05-06 08:55 53.69000 10.18211 4009 ft 229 kts 194°
2026-05-06 08:56 53.67534 10.17111 4007 ft 231 kts 203°
2026-05-06 08:56 53.66109 10.15837 4006 ft 232 kts 204°
2026-05-06 08:56 53.64687 10.14541 4009 ft 233 kts 204°
2026-05-06 08:56 53.63262 10.13245 4004 ft 233 kts 204°
2026-05-06 08:57 53.61838 10.11954 4006 ft 233 kts 204°
2026-05-06 08:57 53.60410 10.10662 4008 ft 233 kts 205°
2026-05-06 08:57 53.58982 10.09372 4009 ft 233 kts 204°
2026-05-06 08:57 53.57553 10.08081 4008 ft 233 kts 204°
2026-05-06 08:58 53.56168 10.06672 4010 ft 234 kts 219°
2026-05-06 08:58 53.55057 10.04653 4015 ft 236 kts 228°
2026-05-06 08:58 53.54025 10.02518 4009 ft 235 kts 229°
2026-05-06 08:58 53.53001 10.00373 4009 ft 236 kts 229°
2026-05-06 08:59 53.51979 9.98232 4004 ft 234 kts 229°
2026-05-06 08:59 53.50960 9.96096 4014 ft 235 kts 229°
2026-05-06 08:59 53.49932 9.93961 4006 ft 235 kts 229°
2026-05-06 08:59 53.48907 9.91832 4006 ft 234 kts 229°
2026-05-06 09:00 53.47885 9.89703 4001 ft 234 kts 229°
2026-05-06 09:00 53.46860 9.87566 4006 ft 235 kts 230°
2026-05-06 09:00 53.45834 9.85436 4008 ft 234 kts 229°
2026-05-06 09:00 53.44807 9.83311 4007 ft 235 kts 229°
2026-05-06 09:01 53.43781 9.81175 3970 ft 233 kts 229°
2026-05-06 09:01 53.42770 9.79064 3582 ft 233 kts 229°
2026-05-06 09:01 53.41746 9.76927 3156 ft 237 kts 229°
2026-05-06 09:01 53.40932 9.74547 2977 ft 238 kts 257°
2026-05-06 09:02 53.40961 9.71826 2987 ft 234 kts 293°
2026-05-06 09:02 53.41820 9.69647 2990 ft 220 kts 328°
2026-05-06 09:02 53.43154 9.68592 2997 ft 210 kts 351°
2026-05-06 09:02 53.44556 9.68398 3005 ft 198 kts 17°
2026-05-06 09:03 53.45870 9.69005 3008 ft 196 kts 23°
2026-05-06 09:03 53.47161 9.69736 3008 ft 195 kts 24°
2026-05-06 09:03 53.48447 9.70487 3007 ft 196 kts 26°
2026-05-06 09:03 53.49547 9.71700 3002 ft 182 kts 50°
2026-05-06 09:04 53.50325 9.73249 3019 ft 168 kts 52°
2026-05-06 09:04 53.51055 9.74710 3008 ft 164 kts 52°
2026-05-06 09:04 53.51792 9.76186 3011 ft 162 kts 52°
2026-05-06 09:04 53.52504 9.77614 2939 ft 161 kts 52°
2026-05-06 09:05 53.53223 9.79054 2772 ft 160 kts 52°
2026-05-06 09:05 53.53935 9.80484 2572 ft 159 kts 53°
2026-05-06 09:05 53.54640 9.81900 2362 ft 155 kts 53°
2026-05-06 09:05 53.55294 9.83210 2153 ft 139 kts 53°
2026-05-06 09:06 53.55896 9.84419 1972 ft 132 kts 52°
2026-05-06 09:06 53.56475 9.85586 1807 ft 129 kts 52°
2026-05-06 09:06 53.57051 9.86746 1633 ft 129 kts 52°
2026-05-06 09:06 53.57623 9.87897 1452 ft 129 kts 51°
2026-05-06 09:07 53.58198 9.89055 1268 ft 128 kts 51°
2026-05-06 09:07 53.58769 9.90206 1081 ft 127 kts 50°
2026-05-06 09:07 53.59336 9.91364 911 ft 128 kts 50°
2026-05-06 09:07 53.59907 9.92524 705 ft 128 kts 49°
2026-05-06 09:08 53.60487 9.93675 554 ft 130 kts 51°
2026-05-06 09:08 53.61065 9.94842 393 ft 130 kts 50°
2026-05-06 09:08 53.61647 9.96009 210 ft 128 kts 49°
2026-05-06 09:08 53.62210 9.97151 64 ft 122 kts 49°
2026-05-06 09:09 53.62640 9.98022 49 ft 57 kts 50°
2026-05-06 09:09 53.62777 9.98300 48 ft 25 kts 50°
2026-05-06 09:09 53.62885 9.98522 49 ft 25 kts 50°
2026-05-06 09:09 53.62998 9.98744 49 ft 25 kts 49°
2026-05-06 09:10 53.63081 9.98990 51 ft 20 kts 75°
2026-05-06 09:10 53.63087 9.99231 50 ft 22 kts 96°
2026-05-06 09:10 53.63128 9.99471 50 ft 22 kts 54°
2026-05-06 09:10 53.63219 9.99662 50 ft 13 kts 53°
2026-05-06 09:11 53.63191 9.99789 50 ft 13 kts 146°
2026-05-06 09:11 53.63113 9.99859 50 ft 12 kts 154°
2026-05-06 09:11 53.63043 9.99916 50 ft 11 kts 153°
2026-05-06 09:11 53.62982 9.99971 50 ft 9 kts 151°
2026-05-06 09:12 53.62947 10.00048 49 ft 8 kts 106°
2026-05-06 09:12 53.62925 10.00124 50 ft 7 kts 122°
2026-05-06 09:12 53.62902 10.00186 51 ft 5 kts 122°
2026-05-06 09:12 53.62891 10.00214 51 ft 0 kts 122°
2026-05-06 09:14 53.62892 10.00214 51 ft 0 kts 122°